Regional Weather Roundup
Issued by NWS

Home | Current Version | Previous Version | Graphics & Text | Print | Product List | Glossary On
Versions: 1 2 3 4 5 6 7 8 9 10 11 12 13 14 15 16 17 18 19 20 21 22 23 24 25 26 27
000
ASUS45 KSLC 231310
RWRUT

UTAH REGIONAL WEATHER ROUNDUP
NATIONAL WEATHER SERVICE SALT LAKE CITY UT
700 AM MDT WED AUG 23 2017

UTZ001>011-023>025-231400-

NORTHERN UTAH

CITY           SKY/WX    TMP DP  RH WIND       PRES   REMARKS
BRIGHAM CITY   MOCLDY    68  53  58 W5        30.16R
DUGWAY         PTCLDY    54  43  66 SE2       30.16R
HILL AFB       PTCLDY    68  46  44 SE5       30.19R
LOGAN          CLOUDY    64  54  69 N3        30.17R
OGDEN          PTCLDY    67  47  48 S8        30.16R
SALT LAKE CITY MOCLDY    70  55  59 SE8       30.16R
TOOELE VALLEY  PTCLDY    63  52  67 S12       30.17R
WENDOVER       NOT AVBL
HEBER CITY     PTCLDY    52  46  82 CALM      30.25R
WEST JORDAN    MOCLDY    65  60  83 S9        30.20R

$$

UTZ011>015-024>027-231400-

CENTRAL/NORTHEAST UTAH

CITY           SKY/WX    TMP DP  RH WIND       PRES   REMARKS
PROVO AIRPORT  MOCLDY    61  53  75 CALM      30.21R
MOAB/CANYONLAN PTCLDY    65  47  52 CALM      30.18R
DELTA          PTCLDY    57  45  62 SE5       30.20R
PRICE          PTCLDY    54  50  86 NE5       30.28R
RICHFIELD      CLEAR     50  50 100 CALM      30.29
ROOSEVELT      CLOUDY    61  45  55 CALM      30.26R
VERNAL         CLOUDY    63  48  58 CALM      30.25R

$$

UTZ013>016-019>022-027-231400-

SOUTHERN UTAH

CITY           SKY/WX    TMP DP  RH WIND       PRES   REMARKS
BRYCE CANYON   CLEAR     45  43  93 W8        30.41R
CEDAR CITY     PTCLDY    54  46  74 W6        30.23S
MILFORD        PTCLDY    52  43  71 CALM      30.20S
HANKSVILLE     CLEAR     59  41  51 CALM      30.21R
KANAB          MOCLDY    63  46  55 N14       30.24S
BLANDING       CLEAR     59  45  60 N8        30.36R

$$

REGIONAL REPORTS     COLORADO/ARIZONA

CITY           SKY/WX    TMP DP  RH WIND       PRES   REMARKS
CRAIG, CO      CLOUDY    53  43  68 CALM      30.31S
GRAND JUNCTION CLOUDY    66  49  54 E12       30.23R
RIFLE, CO      CLOUDY    60  47  61 CALM      30.30R
MONTROSE, CO   CLOUDY    55  47  74 CALM      30.32R
CORTEZ, CO     CLEAR     50  47  89 SE6       30.31R
COLORADO CITY  PTSUNNY   55  50  82 E5        30.23R
PAGE, AZ       PTCLDY    72  47  40 E5        30.15R
GRAND CANYON   CLEAR     49  46  90 CALM      30.33R
KINGMAN, AZ    PTCLDY    68  45  43 CALM      30.08R
FLAGSTAFF, AZ  PTCLDY    48  43  82 CALM      30.36R

$$

REGIONAL REPORTS    NEVADA/IDAHO/WYOMING

CITY           SKY/WX    TMP DP  RH WIND       PRES   REMARKS
LAS VEGAS, NV  PTCLDY    83  47  28 CALM      29.97R
ELY, NY        CLEAR     46  43  89 SE8       30.30R
ELKO, NV       CLEAR     54  47  77 CALM      30.22R
POCATELLO, ID  MOCLDY    59  50  72 NW3       30.16R
BURLEY, ID     CLOUDY    65  52  62 NE3       30.12R
FORT BRIDGER,  CLOUDY    61  46  58 W10       30.37S
EVANSTON, WY   LGT RAIN  60  44  55 E6        30.35R
ROCK SPRINGS,  NOT AVBL
KEMMERER, WY     N/A     55  37  50 NW6       30.36R

$$




USA.gov is the U.S. government's official web portal to all federal, state and local government web resources and services.